Time,TemperatureF,DewpointF,PressureIn,WindDirection,WindDirectionDegrees,WindSpeedMPH,WindSpeedGustMPH,Humidity,HourlyPrecipIn,Conditions,Clouds,dailyrainin,SoftwareType,DateUTC
2013-06-11 00:00:00,55.4,42.6,-100.00,North,-999,0.0,0.0,62,0.00,,,-99.99,FreeWX-Wi 1.01,2013-06-11 04:00:00,
2013-06-11 00:10:00,55.2,42.4,-100.00,North,-999,0.0,0.0,62,0.00,,,-99.99,FreeWX-Wi 1.01,2013-06-11 04:10:00,
2013-06-11 00:20:00,55.2,42.8,-100.00,North,-999,0.0,0.0,63,0.00,,,-99.99,FreeWX-Wi 1.01,2013-06-11 04:20:00,
2013-06-11 00:30:00,55.2,42.8,-100.00,North,-999,0.0,0.0,63,0.00,,,-99.99,FreeWX-Wi 1.01,2013-06-11 04:30:00,
2013-06-11 00:40:00,55.0,42.6,-100.00,North,-999,0.0,0.0,63,0.00,,,-99.99,FreeWX-Wi 1.01,2013-06-11 04:40:00,
2013-06-11 00:50:00,55.0,42.6,-100.00,North,-999,0.0,0.0,63,0.00,,,-99.99,FreeWX-Wi 1.01,2013-06-11 04:50:00,
2013-06-11 01:00:00,55.0,42.6,-100.00,North,-999,0.0,0.0,63,0.00,,,-99.99,FreeWX-Wi 1.01,2013-06-11 05:00:00,
2013-06-11 01:10:00,55.0,43.2,-100.00,North,-999,0.0,2.7,64,0.00,,,-99.99,FreeWX-Wi 1.01,2013-06-11 05:10:00,
2013-06-11 01:20:00,54.9,43.0,-100.00,North,-999,0.0,0.0,64,0.00,,,-99.99,FreeWX-Wi 1.01,2013-06-11 05:20:00,
2013-06-11 01:30:00,54.7,42.8,-100.00,North,-999,0.0,0.0,64,0.00,,,-99.99,FreeWX-Wi 1.01,2013-06-11 05:30:00,
2013-06-11 01:40:00,54.7,42.8,-100.00,North,-999,0.0,0.0,64,0.00,,,-99.99,FreeWX-Wi 1.01,2013-06-11 05:40:00,
2013-06-11 01:50:00,54.5,42.6,-100.00,North,-999,0.0,0.0,64,0.00,,,-99.99,FreeWX-Wi 1.01,2013-06-11 05:50:00,
2013-06-11 02:00:00,54.3,42.8,-100.00,North,-999,0.0,0.0,65,0.00,,,-99.99,FreeWX-Wi 1.01,2013-06-11 06:00:00,
2013-06-11 02:10:00,54.3,42.8,-100.00,North,-999,0.0,0.0,65,0.00,,,-99.99,FreeWX-Wi 1.01,2013-06-11 06:10:00,
2013-06-11 02:20:00,54.3,43.2,-100.00,North,-999,0.0,0.0,66,0.00,,,-99.99,FreeWX-Wi 1.01,2013-06-11 06:20:00,
2013-06-11 02:30:00,54.1,43.0,-100.00,North,-999,0.0,2.2,66,0.00,,,-99.99,FreeWX-Wi 1.01,2013-06-11 06:30:00,
2013-06-11 02:40:00,54.0,42.8,-100.00,North,-999,0.0,4.9,66,0.00,,,-99.99,FreeWX-Wi 1.01,2013-06-11 06:40:00,
2013-06-11 02:50:00,53.8,42.6,-100.00,North,-999,0.0,0.0,66,0.00,,,-99.99,FreeWX-Wi 1.01,2013-06-11 06:50:00,
2013-06-11 03:00:00,53.8,42.6,-100.00,North,-999,0.0,3.6,66,0.00,,,-99.99,FreeWX-Wi 1.01,2013-06-11 07:00:00,
2013-06-11 03:10:00,53.6,42.4,-100.00,North,-999,0.0,4.0,66,0.00,,,-99.99,FreeWX-Wi 1.01,2013-06-11 07:10:00,
2013-06-11 03:20:00,53.6,42.4,-100.00,North,-999,0.0,3.1,66,0.00,,,-99.99,FreeWX-Wi 1.01,2013-06-11 07:20:00,
2013-06-11 03:30:00,53.6,43.0,-100.00,North,-999,0.0,4.0,67,0.00,,,-99.99,FreeWX-Wi 1.01,2013-06-11 07:30:00,
2013-06-11 03:40:00,53.6,43.0,-100.00,North,-999,0.0,0.0,67,0.00,,,-99.99,FreeWX-Wi 1.01,2013-06-11 07:40:00,
2013-06-11 03:50:00,53.6,43.3,-100.00,North,-999,0.0,3.6,68,0.00,,,-99.99,FreeWX-Wi 1.01,2013-06-11 07:50:00,
2013-06-11 04:00:00,53.6,43.3,-100.00,North,-999,0.0,2.2,68,0.00,,,-99.99,FreeWX-Wi 1.01,2013-06-11 08:00:00,
2013-06-11 04:10:00,53.6,43.3,-100.00,North,-999,0.0,4.0,68,0.00,,,-99.99,FreeWX-Wi 1.01,2013-06-11 08:10:00,
2013-06-11 04:20:00,53.6,43.3,-100.00,North,-999,0.0,3.6,68,0.00,,,-99.99,FreeWX-Wi 1.01,2013-06-11 08:20:00,
2013-06-11 04:30:00,53.4,43.5,-100.00,North,-999,0.0,4.0,69,0.00,,,-99.99,FreeWX-Wi 1.01,2013-06-11 08:30:00,
2013-06-11 04:40:00,53.4,43.9,-100.00,North,-999,0.0,4.0,70,0.00,,,-99.99,FreeWX-Wi 1.01,2013-06-11 08:40:00,
2013-06-11 04:50:00,53.6,44.1,-100.00,North,-999,0.0,4.9,70,0.00,,,-99.99,FreeWX-Wi 1.01,2013-06-11 08:50:00,
2013-06-11 05:00:00,53.6,44.1,-100.00,North,-999,0.0,3.6,70,0.00,,,-99.99,FreeWX-Wi 1.01,2013-06-11 09:00:00,
2013-06-11 05:10:00,53.6,44.4,-100.00,North,-999,0.0,3.1,71,0.00,,,-99.99,FreeWX-Wi 1.01,2013-06-11 09:10:00,
2013-06-11 05:20:00,53.6,44.4,-100.00,North,-999,0.0,0.0,71,0.00,,,-99.99,FreeWX-Wi 1.01,2013-06-11 09:20:00,
2013-06-11 05:30:00,53.6,44.4,-100.00,North,-999,0.0,0.0,71,0.00,,,-99.99,FreeWX-Wi 1.01,2013-06-11 09:30:00,
2013-06-11 05:40:00,53.6,44.8,-100.00,North,-999,0.0,2.2,72,0.00,,,-99.99,FreeWX-Wi 1.01,2013-06-11 09:40:00,
2013-06-11 05:50:00,53.6,44.8,-100.00,North,-999,0.0,0.0,72,0.00,,,-99.99,FreeWX-Wi 1.01,2013-06-11 09:50:00,
2013-06-11 06:00:00,53.6,44.8,-100.00,North,-999,0.0,3.6,72,0.00,,,-99.99,FreeWX-Wi 1.01,2013-06-11 10:00:00,
2013-06-11 06:10:00,53.6,44.8,-100.00,North,-999,0.0,2.7,72,0.00,,,-99.99,FreeWX-Wi 1.01,2013-06-11 10:10:00,
2013-06-11 06:20:00,53.6,44.8,-100.00,North,-999,0.0,0.0,72,0.00,,,-99.99,FreeWX-Wi 1.01,2013-06-11 10:20:00,
2013-06-11 06:30:00,53.6,44.8,-100.00,North,-999,0.0,2.7,72,0.00,,,-99.99,FreeWX-Wi 1.01,2013-06-11 10:30:00,
2013-06-11 06:40:00,53.6,44.8,-100.00,North,-999,0.0,0.0,72,0.00,,,-99.99,FreeWX-Wi 1.01,2013-06-11 10:40:00,
2013-06-11 06:50:00,53.6,44.8,-100.00,North,-999,0.0,0.0,72,0.00,,,-99.99,FreeWX-Wi 1.01,2013-06-11 10:50:00,
2013-06-11 07:00:00,53.8,45.0,-100.00,North,-999,0.0,0.0,72,0.00,,,-99.99,FreeWX-Wi 1.01,2013-06-11 11:00:00,
2013-06-11 07:10:00,53.8,45.3,-100.00,North,-999,0.0,0.0,73,0.00,,,-99.99,FreeWX-Wi 1.01,2013-06-11 11:10:00,
2013-06-11 07:20:00,54.0,45.5,-100.00,North,-999,0.0,0.0,73,0.00,,,-99.99,FreeWX-Wi 1.01,2013-06-11 11:20:00,
2013-06-11 07:30:00,54.0,45.5,-100.00,North,-999,0.0,3.1,73,0.00,,,-99.99,FreeWX-Wi 1.01,2013-06-11 11:30:00,
2013-06-11 07:40:00,54.0,45.9,-100.00,North,-999,0.0,0.0,74,0.00,,,-99.99,FreeWX-Wi 1.01,2013-06-11 11:40:00,
2013-06-11 07:50:00,54.1,46.0,-100.00,North,-999,0.0,0.0,74,0.00,,,-99.99,FreeWX-Wi 1.01,2013-06-11 11:50:00,
2013-06-11 08:00:00,54.1,46.0,-100.00,North,-999,0.0,0.0,74,0.00,,,-99.99,FreeWX-Wi 1.01,2013-06-11 12:00:00,
2013-06-11 08:10:00,54.3,46.2,-100.00,North,-999,0.0,0.0,74,0.00,,,-99.99,FreeWX-Wi 1.01,2013-06-11 12:10:00,
2013-06-11 08:20:00,54.5,46.8,-100.00,North,-999,0.0,0.0,75,0.00,,,-99.99,FreeWX-Wi 1.01,2013-06-11 12:20:00,
2013-06-11 08:30:00,54.5,46.8,-100.00,North,-999,0.0,0.0,75,0.00,,,-99.99,FreeWX-Wi 1.01,2013-06-11 12:30:00,
2013-06-11 08:40:00,54.7,46.9,-100.00,North,-999,0.0,0.0,75,0.00,,,-99.99,FreeWX-Wi 1.01,2013-06-11 12:40:00,
2013-06-11 08:50:00,54.7,46.9,-100.00,North,-999,0.0,0.0,75,0.00,,,-99.99,FreeWX-Wi 1.01,2013-06-11 12:50:00,
2013-06-11 09:00:00,54.7,46.9,-100.00,North,-999,0.0,0.0,75,0.00,,,-99.99,FreeWX-Wi 1.01,2013-06-11 13:00:00,
2013-06-11 09:10:00,54.7,47.3,-100.00,North,-999,0.0,0.0,76,0.00,,,-99.99,FreeWX-Wi 1.01,2013-06-11 13:10:00,
2013-06-11 09:20:00,54.7,46.9,-100.00,North,-999,0.0,0.0,75,0.00,,,-99.99,FreeWX-Wi 1.01,2013-06-11 13:20:00,
2013-06-11 09:30:00,54.7,46.9,-100.00,North,-999,0.0,0.0,75,0.00,,,-99.99,FreeWX-Wi 1.01,2013-06-11 13:30:00,
2013-06-11 09:40:00,54.7,46.9,-100.00,North,-999,0.0,0.0,75,0.00,,,-99.99,FreeWX-Wi 1.01,2013-06-11 13:40:00,
2013-06-11 09:50:00,55.0,47.7,-100.00,North,-999,0.0,0.0,76,0.00,,,-99.99,FreeWX-Wi 1.01,2013-06-11 13:50:00,
2013-06-11 10:00:00,55.0,47.3,-100.00,North,-999,0.0,0.0,75,0.00,,,-99.99,FreeWX-Wi 1.01,2013-06-11 14:00:00,
2013-06-11 10:10:00,55.0,47.7,-100.00,North,-999,0.0,0.0,76,0.00,,,-99.99,FreeWX-Wi 1.01,2013-06-11 14:10:00,
2013-06-11 10:20:00,55.2,47.8,-100.00,North,-999,0.0,0.0,76,0.00,,,-99.99,FreeWX-Wi 1.01,2013-06-11 14:20:00,
2013-06-11 10:30:00,55.2,47.8,-100.00,North,-999,0.0,0.0,76,0.00,,,-99.99,FreeWX-Wi 1.01,2013-06-11 14:30:00,
2013-06-11 10:40:00,55.4,47.7,-100.00,North,-999,0.0,0.0,75,0.00,,,-99.99,FreeWX-Wi 1.01,2013-06-11 14:40:00,
2013-06-11 10:50:00,55.4,47.7,-100.00,North,-999,0.0,0.0,75,0.00,,,-99.99,FreeWX-Wi 1.01,2013-06-11 14:50:00,
2013-06-11 11:00:00,55.6,47.8,-100.00,North,-999,0.0,0.0,75,0.00,,,-99.99,FreeWX-Wi 1.01,2013-06-11 15:00:00,
2013-06-11 11:10:00,55.6,47.8,-100.00,North,-999,0.0,0.0,75,0.00,,,-99.99,FreeWX-Wi 1.01,2013-06-11 15:10:00,
2013-06-11 11:20:00,55.6,47.5,-100.00,North,-999,0.0,0.0,74,0.00,,,-99.99,FreeWX-Wi 1.01,2013-06-11 15:20:00,
2013-06-11 11:30:00,55.8,47.7,-100.00,North,-999,0.0,0.0,74,0.00,,,-99.99,FreeWX-Wi 1.01,2013-06-11 15:30:00,
2013-06-11 11:40:00,55.8,47.3,-100.00,North,-999,0.0,0.0,73,0.00,,,-99.99,FreeWX-Wi 1.01,2013-06-11 15:40:00,
2013-06-11 11:50:00,55.8,46.9,-100.00,North,-999,0.0,0.0,72,0.00,,,-99.99,FreeWX-Wi 1.01,2013-06-11 15:50:00,
2013-06-11 12:00:00,55.8,46.9,-100.00,North,-999,0.0,0.0,72,0.00,,,-99.99,FreeWX-Wi 1.01,2013-06-11 16:00:00,
2013-06-11 12:10:00,56.3,47.3,-100.00,North,-999,0.0,0.0,72,0.00,,,-99.99,FreeWX-Wi 1.01,2013-06-11 16:10:00,
2013-06-11 12:20:00,56.5,47.5,-100.00,North,-999,0.0,0.0,72,0.00,,,-99.99,FreeWX-Wi 1.01,2013-06-11 16:20:00,
2013-06-11 12:30:00,56.7,46.9,-100.00,North,-999,0.0,0.0,70,0.00,,,-99.99,FreeWX-Wi 1.01,2013-06-11 16:30:00,
2013-06-11 12:40:00,56.8,47.1,-100.00,North,-999,0.0,0.0,70,0.00,,,-99.99,FreeWX-Wi 1.01,2013-06-11 16:40:00,
2013-06-11 12:50:00,56.8,46.8,-100.00,North,-999,0.0,0.0,69,0.00,,,-99.99,FreeWX-Wi 1.01,2013-06-11 16:50:00,
2013-06-11 13:00:00,57.0,46.9,-100.00,North,-999,0.0,0.0,69,0.00,,,-99.99,FreeWX-Wi 1.01,2013-06-11 17:00:00,
2013-06-11 13:10:00,57.4,46.6,-100.00,North,-999,0.0,0.0,67,0.00,,,-99.99,FreeWX-Wi 1.01,2013-06-11 17:10:00,
2013-06-11 13:20:00,57.4,46.6,-100.00,North,-999,0.0,0.0,67,0.00,,,-99.99,FreeWX-Wi 1.01,2013-06-11 17:20:00,
2013-06-11 13:30:00,57.6,46.2,-100.00,North,-999,0.0,0.0,66,0.00,,,-99.99,FreeWX-Wi 1.01,2013-06-11 17:30:00,
2013-06-11 13:40:00,57.7,46.0,-100.00,North,-999,0.0,0.0,65,0.00,,,-99.99,FreeWX-Wi 1.01,2013-06-11 17:40:00,
2013-06-11 13:50:00,57.7,45.1,-100.00,North,-999,0.0,0.0,63,0.00,,,-99.99,FreeWX-Wi 1.01,2013-06-11 17:50:00,
2013-06-11 14:00:00,57.9,45.0,-100.00,North,-999,0.0,0.0,62,0.00,,,-99.99,FreeWX-Wi 1.01,2013-06-11 18:00:00,
2013-06-11 14:10:00,58.1,44.8,-100.00,North,-999,0.0,0.0,61,0.00,,,-99.99,FreeWX-Wi 1.01,2013-06-11 18:10:00,
2013-06-11 14:20:00,58.1,44.8,-100.00,North,-999,0.0,0.0,61,0.00,,,-99.99,FreeWX-Wi 1.01,2013-06-11 18:20:00,
2013-06-11 14:30:00,58.1,44.2,-100.00,North,-999,0.0,0.0,60,0.00,,,-99.99,FreeWX-Wi 1.01,2013-06-11 18:30:00,
2013-06-11 14:40:00,58.3,44.4,-100.00,North,-999,0.0,0.0,60,0.00,,,-99.99,FreeWX-Wi 1.01,2013-06-11 18:40:00,
2013-06-11 14:50:00,58.3,44.1,-100.00,North,-999,0.0,0.0,59,0.00,,,-99.99,FreeWX-Wi 1.01,2013-06-11 18:50:00,
2013-06-11 15:00:00,58.5,44.2,-100.00,North,-999,0.0,0.0,59,0.00,,,-99.99,FreeWX-Wi 1.01,2013-06-11 19:00:00,
2013-06-11 15:10:00,58.5,44.2,-100.00,North,-999,0.0,0.0,59,0.00,,,-99.99,FreeWX-Wi 1.01,2013-06-11 19:10:00,
2013-06-11 15:20:00,58.5,43.7,-100.00,North,-999,0.0,0.0,58,0.00,,,-99.99,FreeWX-Wi 1.01,2013-06-11 19:20:00,
2013-06-11 15:30:00,58.5,42.8,-100.00,North,-999,0.0,0.0,56,0.00,,,-99.99,FreeWX-Wi 1.01,2013-06-11 19:30:00,
2013-06-11 15:40:00,58.5,42.8,-100.00,North,-999,0.0,0.0,56,0.00,,,-99.99,FreeWX-Wi 1.01,2013-06-11 19:40:00,
2013-06-11 15:50:00,58.6,43.0,-100.00,North,-999,0.0,0.0,56,0.00,,,-99.99,FreeWX-Wi 1.01,2013-06-11 19:50:00,
2013-06-11 16:00:00,59.0,42.8,-100.00,North,-999,0.0,0.0,55,0.00,,,-99.99,FreeWX-Wi 1.01,2013-06-11 20:00:00,
2013-06-11 16:10:00,59.0,42.4,-100.00,North,-999,0.0,0.0,54,0.00,,,-99.99,FreeWX-Wi 1.01,2013-06-11 20:10:00,
2013-06-11 16:20:00,59.0,42.4,-100.00,North,-999,0.0,0.0,54,0.00,,,-99.99,FreeWX-Wi 1.01,2013-06-11 20:20:00,
2013-06-11 16:30:00,58.8,42.3,-100.00,North,-999,0.0,0.0,54,0.00,,,-99.99,FreeWX-Wi 1.01,2013-06-11 20:30:00,
2013-06-11 16:40:00,59.0,42.4,-100.00,North,-999,0.0,0.0,54,0.00,,,-99.99,FreeWX-Wi 1.01,2013-06-11 20:40:00,
2013-06-11 16:50:00,59.0,41.9,-100.00,North,-999,0.0,0.0,53,0.00,,,-99.99,FreeWX-Wi 1.01,2013-06-11 20:50:00,
2013-06-11 17:00:00,59.0,41.9,-100.00,North,-999,0.0,0.0,53,0.00,,,-99.99,FreeWX-Wi 1.01,2013-06-11 21:00:00,
2013-06-11 17:10:00,58.8,41.7,-100.00,North,-999,0.0,0.0,53,0.00,,,-99.99,FreeWX-Wi 1.01,2013-06-11 21:10:00,
2013-06-11 17:20:00,59.0,41.9,-100.00,North,-999,0.0,0.0,53,0.00,,,-99.99,FreeWX-Wi 1.01,2013-06-11 21:20:00,
2013-06-11 17:30:00,59.2,41.5,-100.00,North,-999,0.0,3.1,52,0.00,,,-99.99,FreeWX-Wi 1.01,2013-06-11 21:30:00,
2013-06-11 17:40:00,59.0,41.4,-100.00,North,-999,0.0,0.0,52,0.00,,,-99.99,FreeWX-Wi 1.01,2013-06-11 21:40:00,
2013-06-11 17:50:00,59.0,41.4,-100.00,North,-999,0.0,0.0,52,0.00,,,-99.99,FreeWX-Wi 1.01,2013-06-11 21:50:00,
2013-06-11 18:00:00,58.8,41.2,-100.00,North,-999,0.0,0.0,52,0.00,,,-99.99,FreeWX-Wi 1.01,2013-06-11 22:00:00,
2013-06-11 18:10:00,58.6,41.0,-100.00,North,-999,0.0,0.0,52,0.00,,,-99.99,FreeWX-Wi 1.01,2013-06-11 22:10:00,
2013-06-11 18:20:00,58.5,40.8,-100.00,North,-999,0.0,0.0,52,0.00,,,-99.99,FreeWX-Wi 1.01,2013-06-11 22:20:00,
2013-06-11 18:30:00,58.1,41.0,-100.00,North,-999,0.0,0.0,53,0.00,,,-99.99,FreeWX-Wi 1.01,2013-06-11 22:30:00,
2013-06-11 18:40:00,57.7,41.2,-100.00,North,-999,0.0,0.0,54,0.00,,,-99.99,FreeWX-Wi 1.01,2013-06-11 22:40:00,
2013-06-11 18:50:00,57.2,41.2,-100.00,North,-999,0.0,0.0,55,0.00,,,-99.99,FreeWX-Wi 1.01,2013-06-11 22:50:00,
2013-06-11 19:00:00,57.0,41.9,-100.00,North,-999,0.0,0.0,57,0.00,,,-99.99,FreeWX-Wi 1.01,2013-06-11 23:00:00,
2013-06-11 19:10:00,57.0,42.4,-100.00,North,-999,0.0,0.0,58,0.00,,,-99.99,FreeWX-Wi 1.01,2013-06-11 23:10:00,
2013-06-11 19:20:00,56.7,42.4,-100.00,North,-999,0.0,0.0,59,0.00,,,-99.99,FreeWX-Wi 1.01,2013-06-11 23:20:00,
2013-06-11 19:30:00,56.3,42.1,-100.00,North,-999,0.0,0.0,59,0.00,,,-99.99,FreeWX-Wi 1.01,2013-06-11 23:30:00,
2013-06-11 19:40:00,56.1,42.4,-100.00,North,-999,0.0,0.0,60,0.00,,,-99.99,FreeWX-Wi 1.01,2013-06-11 23:40:00,
2013-06-11 19:50:00,55.8,42.4,-100.00,North,-999,0.0,0.0,61,0.00,,,-99.99,FreeWX-Wi 1.01,2013-06-11 23:50:00,
2013-06-11 20:00:00,55.6,42.3,-100.00,North,-999,0.0,0.0,61,0.00,,,-99.99,FreeWX-Wi 1.01,2013-06-12 00:00:00,
2013-06-11 20:10:00,55.6,42.8,-100.00,North,-999,0.0,0.0,62,0.00,,,-99.99,FreeWX-Wi 1.01,2013-06-12 00:10:00,
2013-06-11 20:20:00,55.6,42.8,-100.00,North,-999,0.0,0.0,62,0.00,,,-99.99,FreeWX-Wi 1.01,2013-06-12 00:20:00,
2013-06-11 20:30:00,55.4,42.6,-100.00,North,-999,0.0,0.0,62,0.00,,,-99.99,FreeWX-Wi 1.01,2013-06-12 00:30:00,
2013-06-11 20:40:00,55.4,42.6,-100.00,North,-999,0.0,0.0,62,0.00,,,-99.99,FreeWX-Wi 1.01,2013-06-12 00:40:00,
2013-06-11 20:50:00,55.4,43.0,-100.00,North,-999,0.0,0.0,63,0.00,,,-99.99,FreeWX-Wi 1.01,2013-06-12 00:50:00,
2013-06-11 21:00:00,55.2,42.8,-100.00,North,-999,0.0,0.0,63,0.00,,,-99.99,FreeWX-Wi 1.01,2013-06-12 01:00:00,
2013-06-11 21:10:00,55.4,43.0,-100.00,North,-999,0.0,0.0,63,0.00,,,-99.99,FreeWX-Wi 1.01,2013-06-12 01:10:00,
2013-06-11 21:20:00,55.2,43.3,-100.00,North,-999,0.0,0.0,64,0.00,,,-99.99,FreeWX-Wi 1.01,2013-06-12 01:20:00,
2013-06-11 21:30:00,55.0,43.2,-100.00,North,-999,0.0,0.0,64,0.00,,,-99.99,FreeWX-Wi 1.01,2013-06-12 01:30:00,
2013-06-11 21:40:00,54.9,43.0,-100.00,North,-999,0.0,0.0,64,0.00,,,-99.99,FreeWX-Wi 1.01,2013-06-12 01:40:00,
2013-06-11 21:50:00,54.9,43.0,-100.00,North,-999,0.0,0.0,64,0.00,,,-99.99,FreeWX-Wi 1.01,2013-06-12 01:50:00,
2013-06-11 22:00:00,54.9,43.0,-100.00,North,-999,0.0,0.0,64,0.00,,,-99.99,FreeWX-Wi 1.01,2013-06-12 02:00:00,
2013-06-11 22:10:00,54.9,43.3,-100.00,North,-999,0.0,0.0,65,0.00,,,-99.99,FreeWX-Wi 1.01,2013-06-12 02:10:00,
2013-06-11 22:20:00,54.9,43.3,-100.00,North,-999,0.0,0.0,65,0.00,,,-99.99,FreeWX-Wi 1.01,2013-06-12 02:20:00,
2013-06-11 22:30:00,54.9,43.3,-100.00,North,-999,0.0,0.0,65,0.00,,,-99.99,FreeWX-Wi 1.01,2013-06-12 02:30:00,
2013-06-11 22:40:00,54.7,43.2,-100.00,North,-999,0.0,0.0,65,0.00,,,-99.99,FreeWX-Wi 1.01,2013-06-12 02:40:00,
2013-06-11 22:50:00,54.7,43.2,-100.00,North,-999,0.0,0.0,65,0.00,,,-99.99,FreeWX-Wi 1.01,2013-06-12 02:50:00,
2013-06-11 23:00:00,54.7,43.2,-100.00,North,-999,0.0,0.0,65,0.00,,,-99.99,FreeWX-Wi 1.01,2013-06-12 03:00:00,
2013-06-11 23:10:00,54.7,43.5,-100.00,North,-999,0.0,0.0,66,0.00,,,-99.99,FreeWX-Wi 1.01,2013-06-12 03:10:00,
2013-06-11 23:19:00,54.5,43.3,-100.00,North,-999,0.0,0.0,66,0.00,,,-99.99,FreeWX-Wi 1.01,2013-06-12 03:19:00,
2013-06-11 23:29:00,54.7,43.5,-100.00,North,-999,0.0,0.0,66,0.00,,,-99.99,FreeWX-Wi 1.01,2013-06-12 03:29:00,
2013-06-11 23:40:00,54.7,43.9,-100.00,North,-999,0.0,0.0,67,0.00,,,-99.99,FreeWX-Wi 1.01,2013-06-12 03:40:00,
2013-06-11 23:50:00,54.5,43.7,-100.00,North,-999,0.0,0.0,67,0.00,,,-99.99,FreeWX-Wi 1.01,2013-06-12 03:50:00,